When you browse on this site, cookies collect data to enhance your experience and personalize the content and advertising you see.
Visit our Privacy Policy to learn more. By continuing to use the site, you agree to this use of cookies and data.
  • en Suisse
  • Liste des pays
  • À 7 jours
  • Température de l'eau
  • Carte météo
  • Widgets météo
  • user-avatar
    Se connecter

    Météo par heure à Plav'ya

    Ce jour, 30 Mai, Samedi

    Heure Température Précipitation Vent Pression Humidité
    00:00 +10°C° 0 mm 3 m/s 728 mmHg 97%
    01:00 +10°C° 0 mm 3 m/s 728 mmHg 99%
    02:00 +10°C° 0 mm 3 m/s 728 mmHg 100%
    03:00 +10°C° 0 mm 3 m/s 728 mmHg 100%
    04:00 +9°C° 0 mm 3 m/s 727 mmHg 100%
    05:00 +9°C° 0 mm 3 m/s 727 mmHg 100%
    06:00 +9°C° 0 mm 3 m/s 727 mmHg 100%
    07:00 +10°C° 0 mm 3 m/s 727 mmHg 100%
    08:00 +11°C° 0 mm 4 m/s 727 mmHg 99%
    09:00 +11°C° 0 mm 4 m/s 727 mmHg 97%
    10:00 +12°C° 0 mm 4 m/s 727 mmHg 96%
    11:00 +13°C° 0 mm 4 m/s 727 mmHg 94%
    12:00 +13°C° 0 mm 4 m/s 727 mmHg 91%
    13:00 +14°C° 0.5 mm 4 m/s 726 mmHg 94%
    14:00 +15°C° 0.5 mm 4 m/s 726 mmHg 90%
    15:00 +15°C° 0 mm 5 m/s 726 mmHg 88%
    16:00 +15°C° 0 mm 5 m/s 725 mmHg 85%
    17:00 +15°C° 0 mm 5 m/s 725 mmHg 86%
    18:00 +15°C° 0 mm 4 m/s 724 mmHg 88%
    19:00 +14°C° 0 mm 4 m/s 725 mmHg 89%
    20:00 +13°C° 0 mm 3 m/s 725 mmHg 95%
    21:00 +13°C° 0 mm 2 m/s 725 mmHg 97%
    22:00 +11°C° 0 mm 3 m/s 724 mmHg 98%
    23:00 +11°C° 0 mm 3 m/s 724 mmHg 99%

    Demain, 31 Mai, Dimanche

    Heure Température Précipitation Vent Pression Humidité
    00:00 +11°C° 0 mm 3 m/s 724 mmHg 99%
    01:00 +12°C° 0 mm 2 m/s 723 mmHg 99%
    02:00 +10°C° 1.2 mm 3 m/s 723 mmHg 100%
    03:00 +10°C° 1.5 mm 4 m/s 722 mmHg 100%
    04:00 +10°C° 0.3 mm 4 m/s 722 mmHg 100%
    05:00 +9°C° 0.6 mm 5 m/s 722 mmHg 100%
    06:00 +9°C° 1.4 mm 5 m/s 721 mmHg 100%
    07:00 +9°C° 2.1 mm 6 m/s 721 mmHg 100%
    08:00 +9°C° 2.5 mm 5 m/s 721 mmHg 100%
    09:00 +9°C° 1.9 mm 5 m/s 721 mmHg 100%
    10:00 +10°C° 1.1 mm 5 m/s 721 mmHg 100%
    11:00 +12°C° 0.9 mm 5 m/s 721 mmHg 100%
    12:00 +11°C° 0.9 mm 6 m/s 721 mmHg 100%
    13:00 +12°C° 1 mm 4 m/s 721 mmHg 100%
    14:00 +12°C° 1.4 mm 3 m/s 721 mmHg 100%
    15:00 +12°C° 0.5 mm 3 m/s 721 mmHg 100%
    16:00 +12°C° 0.1 mm 3 m/s 721 mmHg 100%
    17:00 +12°C° 0.4 mm 3 m/s 721 mmHg 100%
    18:00 +11°C° 0.4 mm 3 m/s 721 mmHg 100%
    19:00 +12°C° 0.3 mm 3 m/s 720 mmHg 100%
    20:00 +12°C° 0.4 mm 3 m/s 721 mmHg 100%
    21:00 +13°C° 0 mm 3 m/s 721 mmHg 100%
    22:00 +13°C° 0 mm 3 m/s 721 mmHg 99%
    23:00 +13°C° 0 mm 3 m/s 721 mmHg 99%

    Après-demain, 1 Juin, Lundi

    Heure Température Précipitation Vent Pression Humidité
    00:00 +13°C° 0 mm 3 m/s 721 mmHg 99%
    01:00 +13°C° 0 mm 3 m/s 721 mmHg 100%
    02:00 +13°C° 0 mm 4 m/s 722 mmHg 100%
    03:00 +12°C° 0 mm 4 m/s 722 mmHg 99%
    04:00 +12°C° 0 mm 3 m/s 722 mmHg 96%
    05:00 +12°C° 0 mm 4 m/s 722 mmHg 91%
    06:00 +11°C° 0 mm 6 m/s 722 mmHg 91%
    07:00 +13°C° 0 mm 5 m/s 723 mmHg 90%
    08:00 +13°C° 0 mm 4 m/s 723 mmHg 89%
    09:00 +13°C° 0 mm 4 m/s 724 mmHg 91%
    10:00 +13°C° 0 mm 6 m/s 725 mmHg 93%
    11:00 +13°C° 0 mm 6 m/s 725 mmHg 93%
    12:00 +14°C° 0 mm 6 m/s 726 mmHg 92%
    13:00 +14°C° 0 mm 5 m/s 726 mmHg 87%
    14:00 +15°C° 0 mm 5 m/s 726 mmHg 87%
    15:00 +15°C° 0 mm 6 m/s 726 mmHg 86%
    16:00 +15°C° 0 mm 5 m/s 726 mmHg 84%
    17:00 +14°C° 0 mm 4 m/s 726 mmHg 84%
    18:00 +13°C° 0 mm 4 m/s 726 mmHg 84%
    19:00 +12°C° 0 mm 4 m/s 726 mmHg 85%
    20:00 +11°C° 0 mm 4 m/s 726 mmHg 87%
    21:00 +10°C° 0 mm 3 m/s 727 mmHg 90%
    22:00 +10°C° 0 mm 2 m/s 727 mmHg 91%
    23:00 +9°C° 0 mm 2 m/s 727 mmHg 91%

    2 Juin, Mardi

    Heure Température Précipitation Vent Pression Humidité
    00:00 +9°C° 0 mm 3 m/s 727 mmHg 91%
    01:00 +9°C° 0 mm 3 m/s 727 mmHg 93%
    02:00 +8°C° 0 mm 3 m/s 726 mmHg 94%
    03:00 +8°C° 0 mm 3 m/s 726 mmHg 95%
    04:00 +7°C° 0 mm 2 m/s 726 mmHg 94%
    05:00 +7°C° 0 mm 2 m/s 726 mmHg 95%
    06:00 +7°C° 0 mm 2 m/s 726 mmHg 97%
    07:00 +9°C° 0 mm 2 m/s 726 mmHg 93%
    08:00 +10°C° 0 mm 3 m/s 727 mmHg 90%
    09:00 +10°C° 0 mm 4 m/s 727 mmHg 87%
    10:00 +10°C° 0 mm 5 m/s 727 mmHg 85%
    11:00 +12°C° 0 mm 4 m/s 727 mmHg 82%
    12:00 +13°C° 0 mm 4 m/s 727 mmHg 81%
    13:00 +13°C° 0 mm 4 m/s 726 mmHg 85%
    14:00 +14°C° 0.1 mm 4 m/s 725 mmHg 82%
    15:00 +14°C° 0.1 mm 5 m/s 725 mmHg 84%
    16:00 +14°C° 0.1 mm 5 m/s 725 mmHg 81%
    17:00 +14°C° 0 mm 5 m/s 724 mmHg 83%
    18:00 +13°C° 0 mm 5 m/s 724 mmHg 84%
    19:00 +13°C° 0 mm 4 m/s 724 mmHg 85%
    20:00 +12°C° 0 mm 4 m/s 723 mmHg 89%
    21:00 +11°C° 0 mm 3 m/s 723 mmHg 93%
    22:00 +10°C° 0 mm 3 m/s 723 mmHg 95%
    23:00 +10°C° 0 mm 3 m/s 723 mmHg 98%

    3 Juin, Mercredi

    Heure Température Précipitation Vent Pression Humidité
    00:00 +9°C° 0 mm 2 m/s 723 mmHg 99%
    01:00 +9°C° 0 mm 3 m/s 722 mmHg 99%
    02:00 +9°C° 0 mm 2 m/s 722 mmHg 99%
    03:00 +9°C° 0 mm 3 m/s 722 mmHg 99%
    04:00 +9°C° 0.1 mm 3 m/s 721 mmHg 100%
    05:00 +9°C° 0.1 mm 2 m/s 721 mmHg 100%
    06:00 +9°C° 0 mm 3 m/s 721 mmHg 100%
    07:00 +7°C° 1.1 mm 5 m/s 721 mmHg 100%
    08:00 +7°C° 1.6 mm 5 m/s 721 mmHg 100%
    09:00 +10°C° 2.3 mm 4 m/s 721 mmHg 100%
    10:00 +10°C° 0.5 mm 5 m/s 721 mmHg 98%
    11:00 +12°C° 1.1 mm 5 m/s 720 mmHg 99%
    12:00 +12°C° 1.2 mm 5 m/s 721 mmHg 98%
    13:00 +14°C° 0 mm 4 m/s 720 mmHg 92%
    14:00 +13°C° 1.4 mm 5 m/s 720 mmHg 91%
    15:00 +13°C° 0.3 mm 5 m/s 720 mmHg 98%
    16:00 +11°C° 0.7 mm 6 m/s 720 mmHg 96%
    17:00 +12°C° 0.3 mm 4 m/s 720 mmHg 98%
    18:00 +11°C° 1.6 mm 3 m/s 720 mmHg 100%
    19:00 +10°C° 1.1 mm 6 m/s 720 mmHg 93%
    20:00 +10°C° 0.3 mm 5 m/s 719 mmHg 96%
    21:00 +10°C° 1.1 mm 6 m/s 719 mmHg 99%
    22:00 +10°C° 0.9 mm 6 m/s 719 mmHg 100%
    23:00 +10°C° 0.2 mm 6 m/s 719 mmHg 100%

    4 Juin, Jeudi

    Heure Température Précipitation Vent Pression Humidité
    00:00 +10°C° 0.4 mm 5 m/s 719 mmHg 100%
    01:00 +10°C° 0.2 mm 5 m/s 719 mmHg 100%
    02:00 +10°C° 0.1 mm 5 m/s 719 mmHg 100%
    03:00 +10°C° 0.1 mm 5 m/s 719 mmHg 100%
    04:00 +11°C° 0.1 mm 4 m/s 719 mmHg 100%
    05:00 +11°C° 0.8 mm 3 m/s 719 mmHg 100%
    06:00 +11°C° 4.5 mm 3 m/s 719 mmHg 100%
    07:00 +11°C° 1.8 mm 3 m/s 719 mmHg 100%
    08:00 +11°C° 1.3 mm 3 m/s 720 mmHg 100%
    09:00 +11°C° 0.3 mm 3 m/s 720 mmHg 100%
    10:00 +12°C° 0.3 mm 3 m/s 721 mmHg 100%
    11:00 +13°C° 0.3 mm 3 m/s 721 mmHg 100%
    12:00 +15°C° 2.8 mm 2 m/s 721 mmHg 100%
    13:00 +15°C° 7.1 mm 2 m/s 721 mmHg 100%
    14:00 +13°C° 5.4 mm 4 m/s 721 mmHg 100%
    15:00 +15°C° 1.6 mm 2 m/s 721 mmHg 94%
    16:00 +15°C° 2.4 mm 1 m/s 721 mmHg 98%
    17:00 +16°C° 1.8 mm 2 m/s 721 mmHg 98%
    18:00 +18°C° 0.5 mm 1 m/s 721 mmHg 93%
    19:00 +17°C° 0 mm 2 m/s 721 mmHg 96%
    20:00 +16°C° 0.1 mm 2 m/s 722 mmHg 100%
    21:00 +16°C° 0 mm 1 m/s 722 mmHg 100%
    22:00 +15°C° 0 mm 2 m/s 722 mmHg 100%
    23:00 +15°C° 0 mm 2 m/s 722 mmHg 100%
    Voir plus